星链-35832(STARLINK-35832)

导读

STARLINK-35832是美国SpaceX公司星链星座的一颗低轨互联网卫星,于2025年11月15日发射入轨。作为星链星座扩建的组成部分,它运行在近地轨道,为全球提供高速互联网接入服务,可覆盖偏远地区,支持海事、航空等商业通信,也可服务应急救援等场景。该卫星延续星链标准设计,配备霍尔推进器用于轨道维持和碰撞规避,设计寿命超5年,是SpaceX打造全球低轨卫星星座的一环。

基本信息
目录编号:
66495
目录名称:
STARLINK-35832
国际标识:
2025-263L
轨道中心:
EARTH
卫星名称:
星链-35832
卫星全名:
星链-35832(STARLINK-35832)
卫星状态:
在轨 (已飞行210 天)
发射日期:
2025-11-15 UTC
国别 :
美国 (US)
星等 :
--
轨道信息
数据来源 国际轨道数据
星历时间: 2026-06-11T16:19:13+0800
2天前
查看轨道信息
半长轴: 6861.142km
偏心率: 0.0000507
轨道倾角: 43.006°
近地点辐角 235.147°
升交点赤经 181.679°
平近点角 124.933°
近地点: 482.657km
远地点: 483.353km
周期: 94.266分钟
每日圈数: 15.27595
详细信息
固有亮度:
5
最大亮度:
2.5
卫星平台:
Starlink V1.0
覆盖范围:
全球
运营商:
太空探索技术公司
运营商所在国:
美国
制造商(研发单位):
太空探索技术公司
制造商所在国:
美国
使用方式:
暂无
卫星简介
Starlink 计划是 SpaceX 推出的全球卫星互联网项目,通过发射低轨道卫星,为全球尤其是偏远地区提供高速、低延迟的互联网服务。自 2019 年起,Starlink 已部署数千颗卫星,旨在缩小全球数字鸿沟,推动互联网普及。该项目还为军事、航空等行业提供通信支持,带来广泛经济效益。
2D轨道图
3D轨道图
轨道高度分析图
轨道倾角分析图
轨道综合分析图
查看轨道综合分析图